Location: Unspecified
(0.0000°N, 0.0000°E)
Time: 16:52:42
(UTC+00:00)

Envisat - Visible Passes

Search period start: 17 January 2019 00:00
Search period end: 27 January 2019 00:00
Orbit: 764 x 766 km, 98.2° (Epoch: 17 January)

Date Brightness Start Highest point End Pass type
(mag) Time Alt. Az. Time Alt. Az. Time Alt. Az.
17 Jan 4.4 19:41:46 10° S 19:46:29 39° WSW 19:51:11 10° NNW visible
18 Jan 2.9 19:04:47 10° SSE 19:09:51 71° ENE 19:14:53 10° N visible
19 Jan 5.6 20:08:24 10° SSW 20:11:57 19° WSW 20:15:28 10° WNW visible
20 Jan 3.7 19:30:22 10° S 19:35:19 54° WSW 19:40:15 10° NNW visible
21 Jan 3.1 18:53:44 10° SSE 18:58:40 52° ENE 19:03:34 10° N visible
22 Jan 5.1 19:56:37 10° SSW 20:00:47 26° WSW 20:04:56 10° NW visible
23 Jan 3.2 19:19:04 10° S 19:24:08 75° WSW 19:29:12 10° NNW visible
24 Jan 3.5 18:42:48 10° SE 18:47:29 38° ENE 18:52:09 10° N visible
24 Jan 6.1 20:24:16 10° SW 20:26:13 12° WSW 20:28:10 10° W visible
25 Jan 4.6 19:45:01 10° SSW 19:49:36 35° WSW 19:54:11 10° NW visible
26 Jan 2.9 19:07:53 10° SSE 19:12:58 81° ENE 19:18:01 10° N visible
